Location: 10033 Water Well
(34.0865°N, 106.8959°W)
Time: 16:24:53
(UTC+00:00)

DNEPR-1 R/B - Pass Details

Date: 13 January 2026
Orbit: 586 x 1327 km, 64.6° (Epoch: 11 February)

Event Time Altitude Azimuth Distance (km) Brightness Sun altitude
Rises 00:57:18 0° 197° (SSW) 3,183 7.8 -8.2°
Reaches altitude 10° 00:59:51 10° 193° (SSW) 2,163 6.8 -8.7°
Maximum altitude 01:04:31 53° 117° (ESE) 780 3.8 -9.6°
Drops below altitude 10° 01:08:43 10° 40° (NE) 1,940 5.6 -10.4°
Enters shadow 01:08:44 10° 40° (NE) 1,949 5.6 -10.4°
